Location: Ostrava
(49.8330°N, 18.2830°E)
Time: 11:15:07
(UTC+01:00)

Cosmos 2219 Rocket - Visible Passes

Search period start: 22 November 2014 00:00
Search period end: 02 December 2014 00:00
Orbit: 827 x 848 km, 71.0° (Epoch: 21 November)

Date Brightness Start Highest point End Pass type
(mag) Time Alt. Az. Time Alt. Az. Time Alt. Az.
22 Nov 4.4 18:42:52 10° N 18:43:44 11° N 18:43:44 11° N visible
23 Nov 4.4 18:26:42 10° N 18:27:50 12° NNE 18:27:50 12° NNE visible
23 Nov 4.9 20:09:27 10° NNW 20:09:33 11° NNW 20:09:33 11° NNW visible
24 Nov 4.3 18:10:32 10° N 18:11:57 12° NNE 18:11:57 12° NNE visible
24 Nov 4.7 19:53:12 10° NNW 19:53:40 12° NNW 19:53:40 12° NNW visible
25 Nov 4.3 17:54:23 10° N 17:56:05 11° NNE 17:56:05 11° NNE visible
25 Nov 4.5 19:36:58 10° NNW 19:37:48 14° NNW 19:37:48 14° NNW visible
26 Nov 4.2 17:38:15 10° N 17:39:46 11° NNE 17:40:14 11° NNE visible
26 Nov 4.4 19:20:43 10° NNW 19:21:57 16° N 19:21:57 16° N visible
27 Nov 4.2 17:22:10 10° N 17:23:23 11° NNE 17:24:24 10° NNE visible
27 Nov 4.2 19:04:29 10° NNW 19:06:08 17° N 19:06:08 17° N visible
28 Nov 4.2 17:06:09 10° N 17:07:00 10° NNE 17:07:52 10° NNE visible
28 Nov 4.0 18:48:14 10° NNW 18:50:20 19° N 18:50:20 19° N visible
28 Nov 5.0 20:31:55 10° NNW 20:32:04 11° NNW 20:32:04 11° NNW visible
29 Nov 4.2 16:50:28 10° NNE 16:50:37 10° NNE 16:50:46 10° NNE visible
29 Nov 3.8 18:32:00 10° NNW 18:34:35 21° N 18:34:35 21° N visible
29 Nov 4.8 20:15:38 10° NNW 20:16:19 14° NNW 20:16:19 14° NNW visible
30 Nov 3.6 18:15:46 10° NNW 18:18:52 23° NNE 18:18:52 23° NNE visible
30 Nov 4.5 19:59:21 10° NNW 20:00:36 17° NNW 20:00:36 17° NNW visible
01 Dec 3.5 17:59:31 10° NNW 18:03:12 23° NNE 18:03:12 23° NNE visible
01 Dec 4.2 19:43:04 10° NNW 19:44:57 22° NNW 19:44:57 22° NNW visible
